Location: St Paul
(33.4390°N, 83.7350°W)
Time: 20:31:49
(UTC-04:00)

Meteor 1-11 - Pass Details

Date: 06 October 2017
Orbit: 843 x 885 km, 81.2° (Epoch: 23 October)

Event Time Altitude Azimuth Distance (km) Brightness Sun altitude
Rises 21:05:25 0° 352° (N) 3,493 7.6 -24.4°
Reaches altitude 10° 21:07:52 10° 353° (N) 2,549 6.9 -24.9°
Maximum altitude 21:13:42 87° 83° (E) 887 4.1 -26.1°
Enters shadow 21:15:21 49° 169° (S) 1,114 4.6 -26.4°
